Terug naar catalogus

NOAA 16 DEB

ActiefSSO
NORAD 41054·DEBRIS·🇺🇸 United States

Gelanceerd Sep 21, 2000 vanaf Vandenberg Space Force Base

Loading…

Volgende Passages (komende 24 uur)

TLE

VersSource: Space-Track

Epoch: Sep 14, 2026, 23:19 UTC

1 41054U 00055M   26257.97217052  .00000668  00000-0  25222-3 0  9995
2 41054  98.9904 148.4636 0063197 230.8086 128.7474 14.33741325563336

Volg NOAA 16 DEB in realtime met AllMySat

Download on the App Store